Regional Weather Roundup
Issued by NWS Northern Indiana

Home | Current Version | Previous Version | Text Only | Print | Product List | Glossary Off
Versions: 1 2 3 4 5 6 7 8 9 10 11 12 13 14 15 16 17 18 19 20 21 22 23 24 25 26 27 28 29 30 31 32 33 34 35 36 37 38 39 40 41 42 43 44 45 46 47 48 49 50

000
ASUS43 KIWX 290610
RWRIWX

KIWX WEATHER ROUNDUP
NATIONAL WEATHER SERVICE NORTHERN INDIANA
200 AM EDT WED JUL 29 2015

NOTE: "FAIR" INDICATES FEW OR NO CLOUDS BELOW 12,000 FEET WITH NO
SIGNIFICANT WEATHER AND/OR OBSTRUCTIONS TO VISIBILITY.

* THESE STATIONS ARE NOT UNDER NWS QUALITY CONTROL. THEY ALSO MAY NOT
  REPORT WEATHER SUCH AS PRECIPITATION OR FOG.

INZ001>027-290700-
NORTHERN INDIANA

CITY           SKY/WX    TMP DP  RH WIND       PRES   REMARKS
GARY*          PTCLDY    79  75  89 SE3       29.93F
VALPARAISO     PTCLDY    76  72  87 CALM      29.97F
6HR MIN TEMP:  74; 6HR MAX TEMP:  86; 6HR PCP: TRACE;

MICHIGAN CITY* MOCLDY    73  73 100 CALM      29.96F
LAPORTE*       PTCLDY    74  74 100 CALM      29.97F
6HR MIN TEMP:  74; 6HR MAX TEMP:  86;

KNOX*          PTCLDY    72  72 100 CALM      29.96F
SOUTH BEND     PTCLDY    78  71  79 CALM      29.98S
6HR MIN TEMP:  77; 6HR MAX TEMP:  87;

GOSHEN         CLEAR     75  68  78 SE6       29.98F
6HR MIN TEMP:  73; 6HR MAX TEMP:  85; 6HR PCP: TRACE;

MONTICELLO*    CLEAR     76  76 100 CALM      29.97S
6HR MIN TEMP:  75; 6HR MAX TEMP:  85;

LOGANSPORT*    CLEAR     72  68  88 CALM      29.98S FOG
ROCHESTER*     CLEAR     75  75 100 CALM      29.98S
WARSAW*        CLEAR     72  70  94 CALM      29.99S
ANGOLA*        MOCLDY    75  66  73 SE5       30.01S
FORT WAYNE     PTCLDY    75  71  87 CALM      29.99S
6HR MIN TEMP:  74; 6HR MAX TEMP:  86; 6HR PCP: TRACE;

HUNTINGTON*    PTCLDY    76  73  90 CALM      29.98F
6HR MIN TEMP:  74; 6HR MAX TEMP:  85;

MARION*        MOCLDY    73  72  97 CALM      30.00S FOG
6HR MIN TEMP:  52; 6HR MAX TEMP:  89;


$$
INZ028>050-290700-
CENTRAL INDIANA

CITY           SKY/WX    TMP DP  RH WIND       PRES   REMARKS
LAFAYETTE      CLEAR     75  74  96 CALM      29.96F FOG
6HR MIN TEMP:  74; 6HR MAX TEMP:  84;

KOKOMO*        CLEAR     73  70  88 SE3       29.98F
6HR MIN TEMP:  73; 6HR MAX TEMP:  88;

MUNCIE*        CLEAR     73  71  93 CALM      30.00R
6HR MIN TEMP:  73; 6HR MAX TEMP:  84;

INDIANAPOLIS   MOCLDY    79  73  82 E3        29.97S
6HR MIN TEMP:  79; 6HR MAX TEMP:  86;


$$
MIZ043>046-050>051-056>058-064>065-071>073-077>080-290700-
SOUTHWEST LOWER MICHIGAN

CITY           SKY/WX    TMP DP  RH WIND       PRES   REMARKS
BATTLE CREEK   PTCLDY    76  64  66 S6        30.01R
6HR MIN TEMP:  76; 6HR MAX TEMP:  85;

BENTON HARBOR  PTCLDY    76  69  79 SE6       29.96S
6HR MIN TEMP:  74; 6HR MAX TEMP:  86;

COLDWATER*     CLEAR     72  63  72 SE7       30.00F
6HR MIN TEMP:  69; 6HR MAX TEMP:  80;

HILLSDALE*     CLEAR     71  65  80 S3        30.02S
HOLLAND        CLOUDY    77  67  71 SE8       29.96F
6HR MIN TEMP:  75; 6HR MAX TEMP:  85;

GRAND RAPIDS   PTCLDY    74  66  76 S6        29.98S
6HR MIN TEMP:  73; 6HR MAX TEMP:  84;

KALAMAZOO      PTCLDY    76  65  68 S5        30.00R
6HR MIN TEMP:  73; 6HR MAX TEMP:  85;

STURGIS*       PTCLDY    73  66  78 SE7       29.99S
THREE RIVERS*  FAIR      75  65  70 S5        29.99F

$$
OHZ001>008-015>018-024>025-290700-
NORTHWEST OHIO

CITY           SKY/WX    TMP DP  RH WIND       PRES   REMARKS
WAUSEON*       FAIR      70  66  88 CALM      30.00S
LIMA           CLEAR     73  66  78 SE5       30.00S
6HR MIN TEMP:  72; 6HR MAX TEMP:  84;


$$
AND FOR LAKE MICHIGAN COASTAL AND OPEN LAKE BUOY OBSERVATIONS

STATION/POSITION TEMP    WIND        PRES    VSBY  WAVE
                 AIR SEA DIR/SP/G                  HT/PER
                 (F)     (DEG/KT/KT) (MB)    (MI)  (FT/S)
CALUMET HARBOR    81     180/  2/  2   N/A
MICHIGAN CITY     80     130/  6/  7   N/A
BURNS HARBOR      80     170/  4/ 20 1013.9F
SAINT JOSEPH      78     140/  2/  4 1014.9F
4 MI NW BRIDGMAN  77 76  200/  6/  6   N/A           1
MICHIGAN CITY     76 75  180/  6/  6   N/A           0

$$
&&


USA.gov is the U.S. government's official web portal to all federal, state and local government web resources and services.